Cloud_Cover
98 97 100 100 99 95 100 100 100 100 53 52 96 100 79 100 100 100 100 100 100 17 97 6 5 54 18 5 4 4 5 2 44 100 100 100 100 100 100 100 100 100 100 100
86 100 99 100 100 100 100 100 96 8 21 96 100 100 100 61 100 96 100 100 100 96 5 5 5 5 34 5 0 0 0 1 6 19 98 100 100 100 100 100 100 100 100 100
100 100 11 100 100 100 94 100 100 100 83 77 99 100 100 89 10 100 100 100 100 26 5 5 28 11 5 3 0 0 0 0 0 23 68 100 100 100 96 96 100 100 100 100
100 70 100 100 71 100 100 99 100 100 100 100 100 99 100 100 43 91 100 100 91 74 93 100 10 5 5 2 5 1 0 0 0 25 31 100 100 100 100 100 100 100 100 100
98 100 100 79 88 100 100 100 79 100 90 100 74 89 5 92 54 5 98 75 73 96 5 40 6 5 5 4 50 18 2 0 0 0 11 98 100 100 100 100 100 100 100 100
100 100 100 100 100 90 68 74 44 94 100 8 38 74 72 13 82 70 10 100 68 5 45 87 94 100 100 81 71 12 1 2 0 0 16 52 100 100 100 100 100 100 100 100
100 100 100 100 100 52 71 63 14 5 6 83 23 98 100 94 10 84 41 46 67 66 95 100 100 100 100 97 32 100 82 51 19 13 28 84 100 100 100 100 100 100 100 100
100 100 98 100 100 91 84 98 23 78 56 95 100 21 99 100 100 88 94 88 78 94 60 100 100 100 100 66 21 46 8 48 88 100 100 100 100 100 98 93 50 19 6 0
100 100 100 100 100 100 75 36 26 100 100 68 98 26 71 52 82 42 84 98 100 100 22 88 98 100 100 95 35 6 5 4 2 5 5 4 0 0 1 2 5 5 0 0
100 100 100 100 100 100 100 100 100 42 66 75 42 40 90 100 100 90 96 100 85 100 71 100 83 90 27 28 32 8 5 6 5 5 5 4 2 2 5 5 5 5 5 5
100 100 100 100 100 100 100 100 100 37 95 100 100 100 100 98 100 85 77 99 100 100 100 100 90 26 55 85 69 97 71 37 21 5 5 5 5 5 5 5 11 6 5 5
100 100 100 100 100 100 100 100 100 100 100 100 71 99 100 100 100 100 100 100 100 100 100 82 47 36 5 16 16 6 66 20 5 5 5 5 5 5 5 5 5 5 5 12
100 100 100 100 100 94 43 98 100 100 95 100 86 100 100 100 100 100 100 100 100 100 86 95 90 52 97 30 7 33 5 16 5 5 29 61 42 68 95 97 84 83 70 34
100 100 100 100 100 100 100 100 100 100 100 100 52 100 100 100 100 100 100 100 100 100 100 100 100 100 100 97 48 98 100 100 72 51 72 100 100 100 100 100 100 100 100 100
100 96 98 100 100 100 100 100 100 100 93 97 91 86 72 100 93 100 100 100 100 100 100 100 100 90 74 89 100 100 100 100 100 100 100 100 100 100 100 100 100 100 100 100
100 100 82 100 100 100 100 100 100 100 87 75 99 42 100 100 100 100 100 100 100 100 99 87 94 97 100 100 96 31 94 99 100 100 100 100 100 100 100 100 100 56 68 88
100 100 100 100 100 100 100 100 85 98 100 100 91 92 100 100 100 100 100 82 48 6 36 95 73 99 86 6 28 82 81 87 99 100 100 100 100 90 83 33 55 98 100 100
100 100 100 100 100 100 93 100 100 100 100 93 90 100 100 100 100 100 90 92 69 100 100 88 15 44 78 97 100 100 100 100 100 100 100 100 96 33 65 100 100 100 100 100
100 100 100 100 100 100 100 100 100 100 100 100 100 100 100 100 100 98 78 79 95 100 100 95 83 98 100 100 100 100 100 100 100 100 50 50 46 56 92 100 100 100 86 91
100 100 100 100 84 5 9 59 100 100 52 100 100 100 100 100 100 100 100 100 100 100 100 100 100 100 100 100 91 72 92 100 100 90 100 100 100 100 100 95 100 100 100 96
100 100 100 99 81 81 99 100 97 84 74 100 100 100 100 100 100 100 100 100 100 100 100 100 100 100 100 100 100 94 100 100 100 100 100 100 100 100 79 86 98 98 92 32
100 100 100 100 100 100 100 100 100 100 100 100 100 100 100 100 100 100 100 100 100 100 100 100 100 100 100 100 100 95 99 99 100 100 100 100 100 100 100 100 100 100 94 44
100 100 100 100 100 100 100 100 100 100 100 100 100 100 100 100 100 100 100 100 100 100 100 100 100 100 100 100 100 100 100 100 100 100 100 100 100 100 100 100 100 36 5 5
100 100 100 100 100 100 100 100 100 100 100 100 100 100 100 100 100 100 100 100 100 100 100 100 100 100 100 100 100 100 100 100 100 100 100 95 22 5 5 5 5 5 5 5
100 100 100 100 100 100 100 100 100 100 100 100 100 100 100 100 100 100 100 100 100 100 100 100 100 100 100 100 100 100 100 100 100 82 82 68 52 33 5 5 5 5 6 76
100 100 100 100 100 100 100 100 100 100 100 100 100 100 100 100 100 100 100 100 100 100 100 100 100 100 100 100 100 100 86 90 90 42 9 9 5 5 13 48 6 35 5 5